Saint-Yan, France

6:12 AM CEST on July 21, 2017 (GMT +0200)
Saint Yan

Weather History for LFLN - November, 2013

Change the Weather History Date:

Tuesday, November 12, 2013

  Actual Average Record
Temperature  
Mean Temperature 38 °F -  
Max Temperature 50 °F - - ()
Min Temperature 26 °F - - ()
Degree Days  
Heating Degree Days 27    
Moisture  
Dew Point 34 °F    
Average Humidity 82    
Maximum Humidity 100    
Minimum Humidity 58    
Precipitation  
Precipitation 0.00 in - - ()
Sea Level Pressure  
Sea Level Pressure 30.30 in    
Wind  
Wind Speed 1 mph ()    
Max Wind Speed 4 mph    
Max Gust Speed -    
Visibility 4.6 miles    
Events Fog    
T = Trace of Precipitation, MM = Missing Value Source: Averaged Metar Reports

Daily Weather History Graph

Daily Weather History Graph

Search for Another Location

Airport or City:

Trip Planner

Search our weather history database for the weather conditions in past years. The results will help you decide how hot, cold, wet, or windy it might be!

Date:

Astronomy

Nov. 12, 2013 Rise Set
Actual Time 7:41 AM CET 5:14 PM CET
Civil Twilight 7:08 AM CET 5:46 PM CET
Nautical Twilight 6:32 AM CET 6:23 PM CET
Astronomical Twilight 5:57 AM CET 6:58 PM CET
Moon 2:36 PM CET (11/12) 1:56 AM CET (11/12)
Length of Visible Light 10h 37m
Length of Day
9h 33m
Waxing Gibbous, 74% of the Moon is Illuminated
Nov 12
Waxing Gibbous
Nov 17
Full
Nov 25
Last Quarter
Dec 3
New
Dec 9
First Quarter

Hourly Weather History & Observations

Time (CET) Temp. Windchill Dew Point Humidity Pressure Visibility Wind Dir Wind Speed Gust Speed Precip Events Conditions
12:00 AM 33.8 °F 30.8 °F 32.0 °F 93% 30.36 in 6.2 mi NW 3.5 mph - N/A   Unknown
12:30 AM 32.0 °F - 30.2 °F 93% 30.36 in 3.1 mi Calm Calm - N/A   Mist
1:00 AM 32.0 °F 28.7 °F 30.2 °F 93% 30.36 in 3.7 mi NNW 3.5 mph - N/A   Unknown
1:30 AM 32.0 °F - 28.4 °F 87% 30.36 in 3.1 mi Calm Calm - N/A   Mist
2:00 AM 32.0 °F - 32.0 °F 100% 30.36 in 1.5 mi Calm Calm - N/A   Mist
2:30 AM 33.8 °F 30.8 °F 32.0 °F 93% 30.33 in 3.1 mi NW 3.5 mph - N/A   Mist
3:00 AM 32.0 °F - 30.2 °F 93% 30.33 in 3.1 mi Calm Calm - N/A   Mist
3:30 AM 30.2 °F 26.7 °F 30.2 °F 100% 30.33 in 0.2 mi SE 3.5 mph - N/A Fog Light Freezing Fog
4:00 AM 30.2 °F - 28.4 °F 93% 30.33 in 0.1 mi Calm Calm - N/A Fog Light Freezing Fog
4:30 AM 30.2 °F - 28.4 °F 93% 30.33 in 0.1 mi Calm Calm - N/A Fog Light Freezing Fog
5:00 AM 30.2 °F - 28.4 °F 93% 30.33 in 0.3 mi Calm Calm - N/A Fog Light Freezing Fog
5:30 AM 30.2 °F - 28.4 °F 93% 30.33 in 0.1 mi Calm Calm - N/A Fog Light Freezing Fog
6:00 AM 28.4 °F - 28.4 °F 100% 30.30 in - Calm Calm - N/A Fog Light Freezing Fog
6:30 AM 26.6 °F - 26.6 °F 100% 30.30 in 0.2 mi Calm Calm - N/A Fog Light Freezing Fog
7:00 AM 28.4 °F - 28.4 °F 100% 30.30 in - SSE 2.3 mph - N/A Fog Patches of Fog
7:30 AM 28.4 °F - 28.4 °F 100% 30.30 in 0.2 mi Calm Calm - N/A Fog Light Freezing Fog
8:00 AM 28.4 °F - 26.6 °F 93% 30.33 in 5.0 mi WNW 2.3 mph - N/A   Unknown
8:30 AM 28.4 °F - 26.6 °F 93% 30.33 in 0.3 mi NNW 2.3 mph - N/A Fog Light Freezing Fog
9:00 AM 32.0 °F - 32.0 °F 100% 30.33 in 3.7 mi SE 1.2 mph - N/A   Scattered Clouds
9:30 AM 35.6 °F - 33.8 °F 93% 30.33 in 4.3 mi Variable 1.2 mph - N/A   Unknown
10:00 AM 35.6 °F - 33.8 °F 93% 30.33 in 6.2 mi Calm Calm - N/A   Unknown
10:30 AM 39.2 °F - 35.6 °F 87% 30.33 in 6.2 mi Calm Calm - N/A   Unknown
11:00 AM 41.0 °F - 35.6 °F 81% 30.33 in 6.2 mi Calm Calm - N/A   Unknown
11:30 AM 42.8 °F - 33.8 °F 70% 30.33 in 6.2 mi Calm Calm - N/A   Unknown
12:00 PM 44.6 °F - 33.8 °F 66% 30.33 in 6.2 mi Variable 2.3 mph - N/A   Unknown
12:30 PM 46.4 °F - 33.8 °F 62% 30.30 in 6.2 mi Variable 2.3 mph - N/A   Unknown
1:00 PM 46.4 °F - 35.6 °F 66% 30.30 in 6.2 mi Variable 2.3 mph - N/A   Unknown
1:30 PM 48.2 °F - 35.6 °F 62% 30.27 in 6.2 mi Variable 2.3 mph - N/A   Unknown
2:00 PM 48.2 °F - 33.8 °F 58% 30.27 in 6.2 mi Variable 3.5 mph - N/A   Unknown
2:30 PM 48.2 °F - 33.8 °F 58% 30.27 in 6.2 mi Variable 2.3 mph - N/A   Unknown
3:00 PM 50.0 °F - 35.6 °F 58% 30.27 in 6.2 mi Variable 2.3 mph - N/A   Unknown
3:30 PM 50.0 °F - 35.6 °F 58% 30.27 in 6.2 mi Variable 2.3 mph - N/A   Unknown
4:00 PM 48.2 °F - 33.8 °F 58% 30.24 in 6.2 mi Variable 2.3 mph - N/A   Overcast
4:30 PM 48.2 °F - 35.6 °F 62% 30.24 in 6.2 mi Calm Calm - N/A   Unknown
5:00 PM 48.2 °F - 37.4 °F 66% 30.24 in 6.2 mi Calm Calm - N/A   Overcast
5:30 PM 48.2 °F - 37.4 °F 66% 30.24 in 6.2 mi Calm Calm - N/A   Unknown
6:00 PM 46.4 °F - 37.4 °F 71% 30.24 in 6.2 mi Calm Calm - N/A   Unknown
6:30 PM 46.4 °F - 37.4 °F 71% 30.27 in 6.2 mi Calm Calm - N/A   Unknown
7:00 PM 46.4 °F - 39.2 °F 76% 30.27 in 6.2 mi SSE 1.2 mph - N/A   Overcast
7:30 PM 46.4 °F - 39.2 °F 76% 30.27 in 6.2 mi Calm Calm - N/A   Overcast
8:00 PM 46.4 °F - 39.2 °F 76% 30.27 in 6.2 mi Calm Calm - N/A   Overcast
8:30 PM 44.6 °F - 39.2 °F 81% 30.27 in 6.2 mi Calm Calm - N/A   Mostly Cloudy
9:00 PM 46.4 °F - 41.0 °F 81% 30.27 in 6.2 mi SSE 1.2 mph - N/A   Overcast
9:30 PM 44.6 °F - 41.0 °F 87% 30.27 in 6.2 mi Calm Calm - N/A   Overcast
10:00 PM 44.6 °F - 39.2 °F 81% 30.30 in 6.2 mi Calm Calm - N/A   Overcast
10:30 PM 44.6 °F - 39.2 °F 81% 30.30 in 6.2 mi SE 1.2 mph - N/A   Overcast
11:00 PM 44.6 °F - 39.2 °F 81% 30.30 in 6.2 mi SE 1.2 mph - N/A   Overcast
11:30 PM 44.6 °F - 39.2 °F 81% 30.30 in 6.2 mi Calm Calm - N/A   Overcast